EW5842 Weather Reports


time (UTC)temp
F
wind
direction
speed
knots
gust
knots
rain 1hr
in
rain 24hr
in
rain mn
in
humidity
%
barometer
mb
20260507140517 73 90 3.5 9.6 0.00 0.00 0.00 18 1016.9
20260507135518 72 90 3.5 7.8 0.00 0.00 0.00 19 1016.9
20260507134517 70 90 4.3 9.6 0.00 0.00 0.00 21 1016.6
20260507133517 69 113 3.5 9.6 0.00 0.00 0.00 24 1016.6
20260507132517 69 90 3.5 7.8 0.00 0.00 0.00 24 1016.6
20260507131517 69 68 3.5 9.6 0.00 0.00 0.00 23 1016.7
20260507130517 67 68 4.3 9.6 0.00 0.00 0.00 25 1016.5
20260507125516 66 68 4.3 9.6 0.00 0.00 0.00 28 1016.4
20260507124537 64 23 2.6 8.7 0.00 0.00 0.00 31 1016.0
20260507123518 60 0.0 1.7 0.00 0.00 0.00 37 1015.8
20260507122517 60 0.0 1.7 0.00 0.00 0.00 38 1015.8
20260507121538 61 0.0 0.0 0.00 0.00 0.00 37 1016.0
20260507120517 60 0.0 2.6 0.00 0.00 0.00 37 1016.0
20260507115617 60 0.0 0.0 0.00 0.00 0.00 38 1016.1
20260507114516 61 0.0 0.9 0.00 0.00 0.00 37 1016.2
20260507113517 62 68 0.9 2.6 0.00 0.00 0.00 35 1016.4
20260507112516 62 0.0 1.7 0.00 0.00 0.00 35 1016.7
20260507111537 63 68 0.9 3.5 0.00 0.00 0.00 34 1016.8
20260507110517 63 68 1.7 3.5 0.00 0.00 0.00 34 1016.7
20260507105537 63 68 0.9 3.5 0.00 0.00 0.00 34 1016.8
20260507104516 64 23 0.9 2.6 0.00 0.00 0.00 34 1017.1
20260507103516 64 45 1.7 3.5 0.00 0.00 0.00 33 1017.1
20260507102537 65 0 1.7 3.5 0.00 0.00 0.00 33 1017.0
20260507101517 64 45 1.7 5.2 0.00 0.00 0.00 33 1017.1
20260507100517 64 68 1.7 3.5 0.00 0.00 0.00 33 1017.2
20260507095517 64 68 0.9 3.5 0.00 0.00 0.00 33 1017.2
20260507094558 65 68 1.7 4.3 0.00 0.00 0.00 32 1017.3
20260507093516 64 68 1.7 3.5 0.00 0.00 0.00 33 1017.2
20260507092516 64 68 1.7 2.6 0.00 0.00 0.00 33 1017.3
20260507091516 64 68 1.7 3.5 0.00 0.00 0.00 33 1017.4
20260507090516 64 68 2.6 3.5 0.00 0.00 0.00 33 1017.6
20260507085516 64 90 0.9 1.7 0.00 0.00 0.00 33 1017.5
20260507084516 63 90 0.9 2.6 0.00 0.00 0.00 34 1017.4
20260507083516 61 68 1.7 2.6 0.00 0.00 0.00 35 1017.2
20260507082516 61 90 0.9 2.6 0.00 0.00 0.00 36 1017.6
20260507081518 62 0.0 0.9 0.00 0.00 0.00 35 1017.6
20260507080516 62 0.0 0.9 0.00 0.00 0.00 35 1017.6
20260507075516 62 0.0 0.9 0.00 0.00 0.00 35 1017.4
20260507074516 62 23 0.9 1.7 0.00 0.00 0.00 35 1017.5
20260507073516 62 0.0 1.7 0.00 0.00 0.00 35 1017.6
20260507072516 61 0.0 0.9 0.00 0.00 0.00 36 1017.5
20260507071516 61 0.0 0.0 0.00 0.00 0.00 36 1017.6
20260507070516 62 0.0 0.0 0.00 0.00 0.00 36 1017.5
20260507065517 62 0.0 0.0 0.00 0.00 0.00 36 1017.6
20260507064516 61 0.0 0.0 0.00 0.00 0.00 37 1017.6
20260507063517 62 0.0 0.0 0.00 0.00 0.00 36 1017.5
20260507062516 62 0.0 0.0 0.00 0.00 0.00 36 1017.3
20260507061538 63 0.0 0.0 0.00 0.00 0.00 36 1017.3
20260507060517 62 0.0 0.0 0.00 0.00 0.00 36 1017.0
20260507055517 64 0.0 0.0 0.00 0.00 0.00 35 1017.2
20260507054537 63 0.0 0.0 0.00 0.00 0.00 35 1017.0
20260507053517 63 0.0 0.0 0.00 0.00 0.00 35 1017.1
20260507052516 64 0.0 0.0 0.00 0.00 0.00 35 1016.9
20260507051517 65 0.0 0.0 0.00 0.00 0.00 34 1016.9
20260507050538 64 0.0 0.0 0.00 0.00 0.00 35 1016.8
20260507045516 65 0.0 0.0 0.00 0.00 0.00 34 1017.0
20260507044516 65 0.0 0.0 0.00 0.00 0.00 35 1016.9
20260507043536 65 0.0 0.0 0.00 0.00 0.00 36 1016.9
20260507042516 65 0.0 0.0 0.00 0.00 0.00 36 1016.7
20260507041516 66 0.0 0.0 0.00 0.00 0.00 34 1016.5
20260507040518 67 0.0 0.0 0.00 0.00 0.00 34 1016.6
20260507035536 68 0.0 0.9 0.00 0.00 0.00 33 1016.2
20260507034516 68 0.0 0.0 0.00 0.00 0.00 33 1016.1
20260507033518 68 0.0 0.9 0.00 0.00 0.00 33 1016.1
20260507032516 69 0.0 0.0 0.00 0.00 0.00 32 1015.9
20260507031539 69 0.0 0.9 0.00 0.00 0.00 32 1015.8
20260507030516 69 0.0 0.0 0.00 0.00 0.00 32 1015.7
20260507025517 70 0.0 0.9 0.00 0.00 0.00 31 1015.4
20260507024516 71 0.0 0.0 0.00 0.00 0.00 30 1015.3
20260507023516 71 270 0.9 1.7 0.00 0.00 0.00 30 1015.4
20260507022516 72 270 0.9 2.6 0.00 0.00 0.00 29 1015.1
20260507021517 73 270 1.7 4.3 0.00 0.00 0.00 28 1015.1
20260507020516 73 270 1.7 4.3 0.00 0.00 0.00 28 1015.2
20260507015516 74 270 1.7 5.2 0.00 0.00 0.00 27 1014.8
20260507014536 75 248 1.7 5.2 0.00 0.00 0.00 27 1014.8
20260507013517 75 270 1.7 5.2 0.00 0.00 0.00 27 1014.7
20260507012556 76 248 2.6 5.2 0.00 0.00 0.00 27 1014.4
20260507011517 76 248 2.6 7.8 0.00 0.00 0.00 26 1014.5
20260507010536 77 270 2.6 6.1 0.00 0.00 0.00 26 1014.4
20260507005516 77 248 2.6 8.7 0.00 0.00 0.00 26 1014.7
20260507004516 77 248 2.6 7.8 0.00 0.00 0.00 25 1014.6
20260507003516 78 270 1.7 4.3 0.00 0.00 0.00 25 1014.6
20260507002516 78 270 2.6 6.1 0.00 0.00 0.00 25 1014.5
20260507001516 78 270 3.5 7.8 0.00 0.00 0.00 25 1014.4
20260507000516 78 248 2.6 7.8 0.00 0.00 0.00 25 1014.4
20260506235517 78 248 2.6 6.1 0.00 0.00 0.00 25 1014.5
20260506234517 77 180 3.5 5.2 0.00 0.00 0.00 25 1014.6
20260506233516 79 270 2.6 6.1 0.00 0.00 0.00 25 1014.9
20260506232516 79 338 3.5 6.1 0.00 0.00 0.00 24 1014.8
20260506231536 79 248 2.6 6.1 0.00 0.00 0.00 24 1014.8
20260506230515 81 315 2.6 5.2 0.00 0.00 0.00 24 1015.1
20260506225517 78 203 3.5 8.7 0.00 0.00 0.00 25 1014.9
20260506224536 79 225 4.3 9.6 0.00 0.00 0.00 24 1015.1
20260506223517 80 315 1.7 6.1 0.00 0.00 0.00 24 1015.2
20260506222516 81 338 2.6 8.7 0.00 0.00 0.00 24 1015.7
20260506221537 80 338 3.5 7.8 0.00 0.00 0.00 24 1015.8
20260506220517 78 203 4.3 8.7 0.00 0.00 0.00 25 1015.8
20260506215515 78 225 3.5 8.7 0.00 0.00 0.00 25 1015.8
20260506214517 80 338 2.6 6.1 0.00 0.00 0.00 24 1016.3
20260506213536 78 248 3.5 9.6 0.00 0.00 0.00 25 1016.4
20260506212515 79 248 2.6 6.1 0.00 0.00 0.00 26 1016.5
20260506211516 77 270 4.3 9.6 0.00 0.00 0.00 26 1016.5
20260506210516 79 248 2.6 7.0 0.00 0.00 0.00 25 1016.7
20260506205515 79 338 0.9 5.2 0.00 0.00 0.00 25 1017.1
20260506204515 79 248 2.6 7.8 0.00 0.00 0.00 26 1017.2
20260506203515 76 180 1.7 5.2 0.00 0.00 0.00 27 1017.2
20260506202515 78 248 3.5 8.7 0.00 0.00 0.00 26 1017.5
20260506201517 80 338 1.7 7.8 0.00 0.00 0.00 25 1017.5
20260506200517 79 293 1.7 7.8 0.00 0.00 0.00 26 1017.5
20260506195518 78 225 2.6 8.7 0.00 0.00 0.00 26 1017.7
20260506194519 76 203 3.5 9.6 0.00 0.00 0.00 28 1017.6
20260506193517 75 203 3.5 8.7 0.00 0.00 0.00 28 1017.8
20260506192517 77 338 1.7 5.2 0.00 0.00 0.00 27 1017.7
20260506191517 75 180 2.6 5.2 0.00 0.00 0.00 29 1017.6
20260506190517 75 338 1.7 5.2 0.00 0.00 0.00 29 1017.8
20260506185517 75 315 3.5 9.6 0.00 0.00 0.00 28 1018.0
20260506184537 75 338 0.9 4.3 0.00 0.00 0.00 28 1018.2
20260506183517 76 315 2.6 7.8 0.00 0.00 0.00 28 1018.3
20260506182517 74 225 2.6 7.8 0.00 0.00 0.00 30 1018.4
20260506181517 75 338 1.7 4.3 0.00 0.00 0.00 29 1018.5
20260506180517 72 135 0.9 4.3 0.00 0.00 0.00 30 1018.5
20260506175517 72 248 3.5 7.8 0.00 0.00 0.00 31 1018.5
20260506174517 71 248 1.7 5.2 0.00 0.00 0.00 33 1018.3
20260506173517 71 225 2.6 6.1 0.00 0.00 0.00 32 1018.4
20260506172517 71 248 2.6 8.7 0.00 0.00 0.00 32 1018.5
20260506171538 70 203 2.6 6.1 0.00 0.00 0.00 32 1018.3
20260506170517 69 180 1.7 5.2 0.00 0.00 0.00 34 1018.3
20260506165537 69 180 1.7 7.8 0.00 0.00 0.00 34 1018.3
20260506164517 70 270 1.7 4.3 0.00 0.00 0.00 34 1018.5
20260506163517 70 315 1.7 3.5 0.00 0.00 0.00 34 1018.4
20260506162518 69 315 1.7 4.3 0.00 0.00 0.00 35 1018.1
20260506161517 68 248 0.9 2.6 0.00 0.00 0.00 36 1018.1
20260506160517 67 158 0.9 2.6 0.00 0.00 0.00 36 1017.8
20260506155539 66 203 0.9 4.3 0.00 0.00 0.00 38 1017.9
20260506154538 65 180 0.9 2.6 0.00 0.00 0.00 38 1017.8
20260506153537 65 225 1.7 3.5 0.00 0.00 0.00 39 1017.9
20260506152537 64 203 0.9 3.5 0.00 0.00 0.00 39 1017.8
20260506151518 64 135 0.9 2.6 0.00 0.00 0.00 39 1017.8
20260506150538 63 158 0.9 3.5 0.00 0.00 0.00 39 1017.9
20260506145518 63 113 0.9 3.5 0.00 0.00 0.00 40 1017.8
20260506144517 62 180 1.7 4.3 0.00 0.00 0.00 41 1017.9
20260506143517 61 135 0.9 2.6 0.00 0.00 0.00 42 1017.7
20260506142517 61 135 0.9 2.6 0.00 0.00 0.00 43 1017.6
20260506141516 60 135 0.9 3.5 0.00 0.00 0.00 44 1017.5